Caldwell, NJ

6:34 PM EDT on July 23, 2019 (GMT -0400)
Essex County

Weather History for KCDW - May, 2019

Change the Weather History Date:

Sunday, May 5, 2019

  Actual Average Record
Temperature  
Mean Temperature 56 °F -  
Max Temperature 57 °F 65 °F 90 °F (1965)
Min Temperature 53 °F 42 °F 30 °F (1966)
Degree Days  
Heating Degree Days 9    
Growing Degree Days 6 (Base 50)    
Moisture  
Dew Point 56 °F    
Average Humidity 99    
Maximum Humidity 100    
Minimum Humidity 93    
Precipitation  
Precipitation 1.52 in - - ()
Sea Level Pressure  
Sea Level Pressure 29.84 in    
Wind  
Wind Speed 4 mph (ENE)    
Max Wind Speed 13 mph    
Max Gust Speed 21 mph    
Visibility 4 miles    
Events Rain    
Averages and records for this station are not official NWS values.
T = Trace of Precipitation, MM = Missing Value Source: NWS Daily Summary

Daily Weather History Graph

Daily Weather History Graph

Search for Another Location

Airport or City:

Astronomy

May. 05, 2019 Rise Set
Actual Time 5:50 AM EDT 7:57 PM EDT
Civil Twilight 5:20 AM EDT 8:27 PM EDT
Nautical Twilight 4:43 AM EDT 9:04 PM EDT
Astronomical Twilight 4:03 AM EDT 9:45 PM EDT
Moon 6:34 AM EDT (5/5) 8:47 PM EDT (5/5)
Length of Visible Light 15h 07m
Length of Day
14h 06m
New Moon, 1% of the Moon is Illuminated
May 5
New Moon
May 11
First Quarter
May 18
Full
May 26
Last Quarter
Jun 3
New

Hourly Weather History & Observations

Time (EDT) Temp. Dew Point Humidity Pressure Visibility Wind Dir Wind Speed Gust Speed Precip Events Conditions
12:53 AM 59.0 °F 57.0 °F 93% 29.86 in 4.0 mi SSW 3.5 mph - 0.00 in Rain Light Rain
1:03 AM 57.9 °F 57.0 °F 97% 29.84 in 3.0 mi Calm Calm - 0.00 in Rain Light Rain
1:17 AM 57.9 °F 57.0 °F 97% 29.84 in 2.5 mi Calm Calm - 0.01 in Rain Light Rain
1:53 AM 57.0 °F 57.0 °F 100% 29.85 in 2.0 mi Calm Calm - 0.06 in Rain Rain
2:01 AM 57.9 °F 57.0 °F 97% 29.84 in 1.5 mi Calm Calm - 0.04 in Rain Rain
2:32 AM 57.0 °F 57.0 °F 100% 29.83 in 2.0 mi Calm Calm - 0.12 in Rain Rain
2:41 AM 57.0 °F 57.0 °F 100% 29.83 in 3.0 mi Calm Calm - 0.13 in Rain Light Rain
2:47 AM 57.2 °F 57.2 °F 100% 29.83 in 2.5 mi Calm Calm - 0.14 in Rain Light Rain
2:53 AM 57.0 °F 57.0 °F 100% 29.84 in 2.5 mi Calm Calm - 0.16 in Rain Light Rain
3:06 AM 57.9 °F 57.0 °F 97% 29.83 in 3.0 mi Calm Calm - 0.01 in Rain Light Rain
3:45 AM 57.0 °F 57.0 °F 100% 29.82 in 3.0 mi Calm Calm - 0.06 in Rain Light Rain
3:53 AM 57.0 °F 57.0 °F 100% 29.83 in 3.0 mi Calm Calm - 0.06 in Rain Light Rain
4:18 AM 57.9 °F 57.0 °F 97% 29.81 in 3.0 mi Calm Calm - 0.03 in Rain Light Rain
4:22 AM 57.9 °F 57.9 °F 100% 29.81 in 3.0 mi Calm Calm - 0.04 in Rain Light Rain
4:53 AM 57.0 °F 57.0 °F 100% 29.82 in 3.0 mi Calm Calm - 0.06 in Rain Light Rain
5:24 AM 57.9 °F 57.9 °F 100% 29.80 in 3.0 mi Calm Calm - 0.04 in Rain Light Rain
5:36 AM 57.9 °F 57.9 °F 100% 29.80 in 2.5 mi Calm Calm - 0.06 in Rain Rain
5:53 AM 57.9 °F 57.9 °F 100% 29.82 in 2.5 mi ENE 4.6 mph - 0.10 in Rain Rain
5:56 AM 57.9 °F 57.9 °F 100% 29.80 in 3.0 mi ENE 5.8 mph - 0.00 in Rain Rain
6:05 AM 57.9 °F 57.9 °F 100% 29.81 in 4.0 mi East 6.9 mph - 0.02 in Rain Light Rain
6:30 AM 57.9 °F 57.9 °F 100% 29.81 in 2.5 mi ENE 5.8 mph - 0.06 in Rain Rain
6:36 AM 57.9 °F 57.9 °F 100% 29.82 in 3.0 mi NE 4.6 mph - 0.07 in Rain Rain
6:49 AM 57.2 °F 57.2 °F 100% 29.82 in 4.0 mi ENE 4.6 mph - 0.09 in Rain Light Rain
6:53 AM 57.9 °F 57.9 °F 100% 29.83 in 4.0 mi ENE 6.9 mph - 0.10 in Rain Light Rain
7:53 AM 57.9 °F 57.9 °F 100% 29.84 in 4.0 mi ENE 6.9 mph - 0.09 in Rain Light Rain
8:53 AM 57.9 °F 57.9 °F 100% 29.85 in 3.0 mi East 4.6 mph - 0.06 in Rain Light Rain
9:53 AM 55.9 °F 55.9 °F 100% 29.86 in 5.0 mi East 10.4 mph - 0.06 in Rain Light Rain
10:53 AM 55.9 °F 55.9 °F 100% 29.86 in 4.0 mi East 5.8 mph - 0.05 in Rain Light Rain
11:40 AM 55.9 °F 55.0 °F 97% 29.84 in 4.0 mi East 11.5 mph - 0.04 in Rain Light Rain
11:53 AM 55.9 °F 55.0 °F 97% 29.86 in 3.0 mi East 12.7 mph 20.7 mph 0.05 in Rain Light Rain
12:53 PM 55.0 °F 54.0 °F 96% 29.85 in 5.0 mi East 10.4 mph - 0.04 in Rain Light Rain
1:53 PM 55.0 °F 55.0 °F 100% 29.84 in 5.0 mi East 8.1 mph - 0.02 in Rain Light Rain
2:53 PM 55.0 °F 54.0 °F 96% 29.84 in 4.0 mi ENE 12.7 mph - 0.02 in Rain Light Rain
3:33 PM 54.0 °F 54.0 °F 100% 29.81 in 2.5 mi East 10.4 mph - 0.01 in Rain Light Rain
3:53 PM 54.0 °F 53.1 °F 97% 29.82 in 3.0 mi ENE 11.5 mph 17.3 mph 0.01 in Rain Light Rain
4:53 PM 53.1 °F 53.1 °F 100% 29.82 in 2.0 mi ENE 12.7 mph - 0.02 in Rain Light Rain
5:53 PM 53.1 °F 53.1 °F 100% 29.83 in 2.0 mi East 10.4 mph - 0.05 in Rain Light Rain
6:53 PM 53.1 °F 53.1 °F 100% 29.85 in 1.8 mi ENE 6.9 mph - 0.14 in Rain Rain
7:40 PM 53.1 °F 53.1 °F 100% 29.83 in 1.8 mi NE 6.9 mph - 0.12 in Rain Rain
7:53 PM 53.1 °F 53.1 °F 100% 29.86 in 1.8 mi NE 3.5 mph - 0.15 in Rain Light Rain
8:00 PM 53.1 °F 53.1 °F 100% 29.84 in 5.0 mi NE 4.6 mph - 0.01 in Rain Rain
8:27 PM 53.1 °F 53.1 °F 100% 29.85 in 5.0 mi NE 3.5 mph - 0.05 in Rain Light Rain
8:53 PM 54.0 °F 54.0 °F 100% 29.88 in 5.0 mi NE 3.5 mph - 0.09 in Rain Rain
9:53 PM 54.0 °F 54.0 °F 100% 29.87 in 6.0 mi ENE 8.1 mph - 0.08 in Rain Light Rain
10:03 PM 54.0 °F 54.0 °F 100% 29.85 in 6.0 mi ENE 8.1 mph - 0.02 in Rain Light Rain
10:44 PM 54.0 °F 54.0 °F 100% 29.83 in 10.0 mi ENE 10.4 mph - 0.04 in Rain Light Rain
10:53 PM 54.0 °F 54.0 °F 100% 29.85 in 10.0 mi ENE 9.2 mph - 0.04 in Rain Light Rain
11:25 PM 54.0 °F 54.0 °F 100% 29.84 in 10.0 mi ENE 3.5 mph - 0.01 in   Overcast
11:53 PM 54.0 °F 53.1 °F 97% 29.86 in 10.0 mi NE 6.9 mph - 0.01 in   Overcast